MPEC 2005-V82 : 2005 VE7

The following Minor Planet Electronic Circular may be linked-to from your own Web pages, but must not otherwise be redistributed electronically.


Read MPEC 2005-V81 Read MPEC 2005-V83


M.P.E.C. 2005-V82                                Issued 2005 Nov. 13, 17:38 UT

     The Minor Planet Electronic Circulars contain information on unusual
         minor planets and routine data on comets.  They are published
   on behalf of Commission 20 of the International Astronomical Union by the
          Minor Planet Center, Smithsonian Astrophysical Observatory,
                          Cambridge, MA 02138, U.S.A.

                  Supported in part by the Brinson Foundation
                  Supported in part by the TABASGO Foundation
             Prepared using the Tamkin Foundation Computer Network

                              MPC@CFA.HARVARD.EDU
          URL http://cfa-www.harvard.edu/iau/mpc.html  ISSN 1523-6714

                                   2005 VE7

Observations:
     K05V07E* C2005 11 12.35353 03 02 45.70 +36 39 47.3          18.2 V EV082703
     K05V07E  C2005 11 12.35999 03 02 44.73 +36 39 34.8          18.5 V EV082703
     K05V07E  C2005 11 12.36642 03 02 43.76 +36 39 23.4          18.2 V EV082703
     K05V07E  C2005 11 12.38684 03 02 40.70 +36 38 46.1          18.2 V EV082703
     K05V07E  C2005 11 12.39442 03 02 39.51 +36 38 31.3          18.4 V EV082703
     K05V07E  C2005 11 12.40206 03 02 38.29 +36 38 16.7          18.2 V EV082703
     K05V07E  C2005 11 12.40964 03 02 37.17 +36 38 02.4          17.9 V EV082703
     K05V07E  C2005 11 12.78889 03 01 44.11 +36 26 27.4                 EV082J95
     K05V07E  C2005 11 12.79288 03 01 43.53 +36 26 20.8                 EV082J95
     K05V07E  C2005 11 12.79686 03 01 42.97 +36 26 13.6          18.5 R EV082J95
     K05V07E  C2005 11 12.85843 03 01 33.89 +36 24 26.2          19.1 V EV082198
     K05V07E  C2005 11 12.85950 03 01 33.74 +36 24 24.3          19.1 V EV082198
     K05V07E  C2005 11 13.20979 03 00 44.23 +36 13 55.7                 EV082H36
     K05V07E  C2005 11 13.21315 03 00 43.58 +36 13 50.9          18.7 R EV082H36
     K05V07E  C2005 11 13.21656 03 00 43.11 +36 13 46.2          18.8 R EV082H36
     K05V07E  C2005 11 13.23613 03 00 40.46 +36 13 11.4          18.5 V EV082703
     K05V07E  C2005 11 13.24493 03 00 39.05 +36 12 55.4          18.5 V EV082703
     K05V07E  C2005 11 13.25325 03 00 37.98 +36 12 41.9          18.5 V EV082703
     K05V07E  C2005 11 13.27015 03 00 35.66 +36 12 11.4          18.4 R EV082854
     K05V07E  C2005 11 13.27496 03 00 34.89 +36 12 03.4          18.4 R EV082854
     K05V07E  C2005 11 13.27977 03 00 34.17 +36 11 54.8          18.4 R EV082854
     K05V07E  C2005 11 13.29433 03 00 32.17 +36 11 28.0          19.0 R EV082673
     K05V07E  C2005 11 13.30035 03 00 31.30 +36 11 17.3                 EV082673
     K05V07E  C2005 11 13.30672 03 00 30.38 +36 11 05.9                 EV082673
     K05V07E  C2005 11 13.31065 03 00 29.79 +36 10 58.8                 EV082673

Observer details:
198 Wildberg.  Observer R. Apitzsch.  0.35-m f/4.2 reflector + CCD.
673 Table Mountain Observatory, Wrightwood.  Observer J. Young.  0.6-m f/16
    Cassegrain + CCD.
703 Catalina Sky Survey.  Observer R. A. Kowalski.  Measurers E. C. Beshore,
    E. J. Christensen, G. J. Garradd, A. D. Grauer, R. E. Hill, R. A. Kowalski,
    S. M. Larson, R. H. McNaught.  0.68-m Schmidt + CCD.
854 Sabino Canyon Observatory, Tucson.  Observer J. E. McGaha.  0.36-m f/10.0
    Schmidt-Cassegrain + CCD.
H36 Sandlot Observatory, Scranton.  Observer G. Hug.  0.30-m
    Schmidt-Cassegrain + CCD.
J95 Great Shefford.  Observer P. Birtwhistle.  0.40-m f/6.0 Schmidt-Cassegrain
    + CCD.

Orbital elements:
2005 VE7
Epoch 2005 Nov. 6.0 TT = JDT 2453680.5                  MPC
M  22.05022              (2000.0)            P               Q
n   0.27313562     Peri.   13.13812     +0.52836371     +0.83998948
a   2.3526130      Node   288.88107     -0.79028337     +0.43342345
e   0.7185668      Incl.    7.49913     -0.31029661     +0.32643802
P   3.61           H   18.5           G   0.15
From 24 observations 2005 Nov. 12-13.

Ephemeris:
2005 VE7                 a,e,i = 2.35, 0.72, 7                   q = 0.6621
Date    TT    R. A. (2000) Decl.     Delta      r     Elong.  Phase     V
2005 11 06    03 21.15   +40 02.6    0.454    1.415   154.6    17.5    18.5
2005 11 16    02 54.73   +34 53.0    0.552    1.525   162.5    11.3    18.8
2005 11 26    02 39.99   +30 43.6    0.674    1.631   158.2    13.0    19.5
2005 12 06    02 33.33   +27 38.5    0.816    1.735   148.7    17.2    20.2
2005 12 16    02 32.33   +25 29.1    0.976    1.835   138.8    20.7    20.8
2005 12 26    02 35.31   +24 03.6    1.153    1.932   129.3    23.2    21.3
2006 01 05    02 41.16   +23 11.1    1.342    2.025   120.3    24.8    21.8

Brian G. Marsden             (C) Copyright 2005 MPC           M.P.E.C. 2005-V82

Read MPEC 2005-V81 Read MPEC 2005-V83


Our Web policy. Index to the CBAT/MPC/ICQ pages.

MPC

Valid HTML 4.01!